FW0797 Weather Reports


Display with metric or nautical units.
time (UTC)temp
F
wind
direction
speed
MPH
gust
MPH
rain 1hr
in
rain 24hr
in
rain mn
in
humidity
%
barometer
mb
20180719054935 60 341 5.0 8.0 0.00 0.00 0.00 72 1014.8
20180719053435 60 339 4.0 8.0 0.00 0.00 0.00 69 1014.7
20180719051936 60 339 4.0 6.0 0.00 0.00 0.00 70 1014.7
20180719050428 61 329 3.0 7.0 0.00 0.00 0.00 69 1014.6
20180719044925 61 324 6.0 9.0 0.00 0.05 0.00 64 1014.5
20180719043423 62 333 6.0 10.0 0.00 0.05 0.00 61 1014.4
20180719041920 62 320 7.0 12.0 0.00 0.05 0.00 61 1014.3
20180719040419 62 306 7.0 10.0 0.00 0.05 0.00 61 1014.4
20180719034916 63 336 6.0 10.0 0.00 0.08 0.05 61 1014.3
20180719033414 64 332 7.0 10.0 0.00 0.08 0.05 60 1014.3
20180719031913 64 326 6.0 10.0 0.00 0.08 0.05 59 1014.2
20180719030411 64 321 6.0 9.0 0.00 0.08 0.05 59 1014.1
20180719024910 65 323 6.0 9.0 0.00 0.08 0.05 59 1014.1
20180719023409 65 326 5.0 9.0 0.00 0.08 0.05 57 1014.0
20180719021906 66 345 6.0 9.0 0.00 0.08 0.05 56 1013.7
20180719020409 66 328 5.0 10.0 0.00 0.08 0.05 56 1013.6
20180719014903 66 321 6.0 9.0 0.00 0.09 0.05 57 1013.5
20180719013404 67 311 5.0 8.0 0.00 0.09 0.05 57 1013.4
20180719011858 67 328 4.0 7.0 0.00 0.09 0.05 57 1013.1
20180719010359 68 331 3.0 6.0 0.00 0.09 0.05 56 1012.8
20180719004859 68 329 3.0 5.0 0.00 0.12 0.05 55 1012.5
20180719003357 69 340 2.0 4.0 0.00 0.12 0.05 56 1012.5
20180719001855 70 326 3.0 7.0 0.00 0.12 0.05 51 1012.2
20180719000349 71 321 6.0 10.0 0.00 0.12 0.05 49 1011.9
20180718234846 72 332 5.0 9.0 0.00 0.16 0.05 47 1011.7
20180718233345 73 338 5.0 10.0 0.00 0.16 0.05 46 1011.5
20180718231845 73 326 6.0 12.0 0.00 0.16 0.05 45 1011.3
20180718230342 73 323 5.0 10.0 0.00 0.16 0.05 46 1011.2
20180718224843 74 342 5.0 10.0 0.00 0.16 0.05 44 1011.2
20180718223341 74 333 6.0 12.0 0.00 0.16 0.05 43 1011.0
20180718221841 75 303 5.0 10.0 0.00 0.16 0.05 42 1010.9
20180718220336 75 318 6.0 9.0 0.00 0.16 0.05 43 1010.8
20180718214836 75 319 4.0 12.0 0.00 0.16 0.05 42 1010.6
20180718213335 76 323 4.0 11.0 0.00 0.16 0.05 42 1010.5
20180718211833 76 283 5.0 14.0 0.00 0.16 0.05 40 1010.6
20180718210335 76 330 6.0 11.0 0.00 0.16 0.05 41 1010.6
20180718204831 76 307 5.0 12.0 0.00 0.18 0.05 42 1010.6
20180718203330 76 332 4.0 11.0 0.00 0.18 0.05 44 1010.5
20180718201829 76 316 5.0 13.0 0.00 0.18 0.05 45 1010.4
20180718200327 76 322 7.0 12.0 0.00 0.18 0.05 45 1010.4
20180718194824 76 1 5.0 12.0 0.00 0.30 0.05 47 1010.4
20180718193324 75 327 7.0 10.0 0.00 0.30 0.05 46 1010.4
20180718191822 75 329 6.0 15.0 0.00 0.30 0.05 48 1010.3
20180718190323 75 348 10.0 17.0 0.00 0.30 0.05 48 1010.3
20180718184820 75 346 8.0 14.0 0.00 0.64 0.05 52 1010.2
20180718183317 75 326 5.0 13.0 0.00 0.64 0.05 52 1010.1
20180718181816 75 340 10.0 16.0 0.00 0.64 0.05 52 1010.0
20180718180318 75 341 6.0 17.0 0.00 0.64 0.05 53 1009.9
20180718174818 74 347 10.0 15.0 0.00 0.64 0.05 51 1009.9
20180718173318 74 312 8.0 16.0 0.00 0.64 0.05 53 1009.9
20180718171814 75 328 7.0 17.0 0.00 0.64 0.05 53 1009.7
20180718170313 74 311 9.0 20.0 0.00 0.64 0.05 52 1009.8
20180718164815 75 336 7.0 13.0 0.00 0.64 0.05 53 1009.8
20180718163310 74 323 9.0 17.0 0.00 0.64 0.05 51 1009.9
20180718161808 74 307 5.0 19.0 0.00 0.64 0.05 53 1010.0
20180718160307 73 317 8.0 18.0 0.00 0.64 0.05 54 1009.9
20180718154805 73 316 10.0 17.0 0.00 0.64 0.05 55 1009.9
20180718153306 73 333 9.0 20.0 0.00 0.64 0.05 56 1009.9
20180718151806 73 321 6.0 11.0 0.00 0.64 0.05 59 1009.9
20180718150302 72 309 6.0 16.0 0.00 0.64 0.05 62 1010.1
20180718144759 71 349 7.0 14.0 0.00 0.64 0.05 63 1010.1
20180718143255 70 302 5.0 14.0 0.00 0.64 0.05 66 1010.1
20180718141752 70 2 6.0 16.0 0.00 0.64 0.05 69 1010.1
20180718140249 69 328 8.0 14.0 0.00 0.64 0.05 71 1009.9
20180718134748 69 314 7.0 14.0 0.00 0.64 0.05 75 1009.9
20180718133245 69 330 5.0 12.0 0.00 0.64 0.05 77 1009.9
20180718131745 69 316 4.0 15.0 0.00 0.64 0.05 78 1009.9
20180718130242 68 344 7.0 17.0 0.00 0.64 0.05 80 1009.9
20180718124738 67 330 6.0 14.0 0.00 0.64 0.05 83 1009.8
20180718123236 67 14 7.0 13.0 0.00 0.64 0.05 84 1009.7
20180718121733 66 5 4.0 13.0 0.00 0.64 0.05 88 1009.7
20180718120232 66 331 6.0 12.0 0.00 0.64 0.05 88 1009.7
20180718114733 65 318 5.0 11.0 0.00 0.64 0.05 90 1009.7
20180718113227 64 301 4.0 9.0 0.00 0.64 0.05 93 1009.5
20180718111728 64 315 6.0 10.0 0.00 0.64 0.05 94 1009.2
20180718110225 64 333 6.0 11.0 0.00 0.64 0.05 93 1009.2
20180718104723 64 337 5.0 12.0 0.00 0.64 0.05 95 1009.1
20180718103226 64 318 2.0 7.0 0.00 0.64 0.05 97 1009.1
20180718101722 64 319 0.0 5.0 0.00 0.64 0.05 97 1009.1
20180718100221 64 307 1.0 5.0 0.00 0.64 0.05 97 1008.6
20180718094716 64 316 1.0 4.0 0.00 0.64 0.05 98 1008.4
20180718091715 64 323 1.0 5.0 0.00 0.64 0.05 98 1007.8
20180718090213 63 347 0.0 2.0 0.00 0.64 0.05 98 1007.6
20180718084711 63 257 0.0 0.0 0.00 0.64 0.05 98 1007.6
20180718083212 63 295 0.0 0.0 0.00 0.64 0.05 98 1007.1
20180718081711 63 335 0.0 1.0 0.00 0.64 0.05 98 1007.7
20180718080209 64 205 0.0 0.0 0.00 0.64 0.05 98 1008.0
20180718074707 64 214 0.0 2.0 0.00 0.64 0.05 98 1008.0
20180718073207 64 16 0.0 0.0 0.00 0.64 0.05 98 1007.7
20180718071708 64 230 0.0 2.0 0.00 0.64 0.05 98 1007.5
20180718070204 64 211 0.0 1.0 0.00 0.64 0.05 98 1007.3
20180718064706 64 211 0.0 0.0 0.00 0.64 0.05 98 1007.2
20180718063204 64 129 0.0 0.0 0.00 0.64 0.05 98 1007.1
20180718061701 64 221 0.0 2.0 0.00 0.64 0.05 97 1006.8
20180718060203 65 273 0.0 3.0 0.00 0.64 0.05 97 1006.7